Voltar ao catálogo

STARLINK-34745

AtivoComunicaçõesSSO
NORAD 65057·PAYLOAD·🇺🇸 United States

Lançado Jul 31, 2025 de Vandenberg Space Force Base

Loading…

Próximas Passagens (próximas 24 horas)

TLE

AtualizadoSource: CelesTrak SupGP

Época: Sep 15, 2026, 02:48 UTC

1 65057C 25165B   26258.11715278  .00048298  00000+0  14999-2 0  2589
2 65057  97.2849 329.4313 0001609  87.8413 203.0669 15.33401155    11

Acompanhe STARLINK-34745 em tempo real com AllMySat

Download on the App Store